Date String (YYYY-MM-DD hh:mm:ss) UTC,Instrument flags,absolute air pressure of the measurement (hPa),sample flow rate (lpm),inlet stack bypass flow (lpm),air temperature of the measurement (°C),ambient temperature measured by the external sensor (°C),aerosol sample conditioner tube jacket temperature (°C),OPC LED temperature (°C),internal box temperature (°C),relative humidity of the measurement (%),span deviation,mass concentration of particles derived from Lorenz-Mie calculation of OPC scattering (μg/m³),mass concentration of particles derived from Lorenz-Mie calculation of OPC scattering (μg/m³),mass concentration of particles derived from Lorenz-Mie calculation of OPC scattering (μg/m³)
DateTimeUTC,F1_M11,P_M11,Q1_M11,Q2_M11,T1_M11,T2_M11,T3_M11,T4_M11,T5_M11,U1_M11,ZSPAN_M11,X2_M11,X0_M11,X1_M11
2023-10-12 12:00:00,SystemResetWarning,0813.5,5.00,000.00,028.1,026.5,000.0,036.5,029.7,20.1,0000.0,0000.99,0001.56,0000.82
2023-10-12 12:01:00,SystemResetWarning,0813.5,5.00,000.00,028.1,026.5,000.0,036.5,029.7,20.2,0000.0,0000.96,0001.50,0000.81
2023-10-12 12:02:00,SystemResetWarning,0813.5,4.99,000.00,028.1,026.5,000.0,036.5,029.7,20.2,0000.0,0000.94,0001.48,0000.79
2023-10-12 12:03:00,SystemResetWarning,0813.5,5.00,000.00,028.1,026.5,000.0,036.5,029.7,20.2,0000.0,0000.90,0001.44,0000.77
2023-10-12 12:04:00,SystemResetWarning,0813.5,5.01,000.00,028.1,026.5,000.0,036.5,029.7,20.2,0000.0,0000.92,0001.56,0000.77
2023-10-12 12:05:00,SystemResetWarning,0813.6,5.01,000.00,028.1,026.5,000.0,036.5,029.7,20.3,0000.0,0000.94,0001.75,0000.78
2023-10-12 12:06:00,SystemResetWarning,0813.6,5.00,000.00,028.1,026.5,000.0,036.5,029.7,20.3,0000.0,0000.95,0001.73,0000.81
2023-10-12 12:07:00,SystemResetWarning,0813.6,4.99,000.00,028.1,026.5,000.0,036.5,029.8,20.3,0000.0,0000.96,0001.73,0000.82
2023-10-12 12:08:00,SystemResetWarning,0813.6,4.99,000.00,028.1,026.6,000.0,036.5,029.8,20.3,0000.0,0000.97,0001.98,0000.85
2023-10-12 12:09:00,SystemResetWarning,0813.6,5.00,000.00,028.1,026.6,000.0,036.5,029.8,20.4,0000.0,0000.99,0002.03,0000.88
2023-10-12 12:10:00,SystemResetWarning,0813.6,5.00,000.00,028.1,026.6,000.0,036.5,029.8,20.5,0000.0,0001.01,0001.97,0000.91
2023-10-12 12:11:00,SystemResetWarning,0813.6,5.02,000.00,028.1,026.6,000.0,036.5,029.8,20.6,0000.0,0001.08,0002.26,0000.93
2023-10-12 12:12:00,SystemResetWarning,0813.6,5.00,000.00,028.1,026.6,000.0,036.5,029.8,20.7,0000.0,0001.12,0002.38,0000.95
2023-10-12 12:13:00,SystemResetWarning,0813.6,5.00,000.00,028.1,026.6,000.0,036.5,029.7,20.9,0000.0,0001.18,0002.47,0000.99
2023-10-12 12:14:00,SystemResetWarning,0813.6,5.00,000.00,028.1,026.6,000.0,036.5,029.7,21.1,0000.0,0001.24,0002.51,0001.04
2023-10-12 12:15:00,SystemResetWarning,0813.6,5.00,000.00,028.1,026.6,000.0,036.5,029.7,21.5,0000.0,0001.31,0002.54,0001.10
2023-10-12 12:16:00,SystemResetWarning,0813.6,5.00,000.00,028.1,026.6,000.0,036.5,029.7,21.3,0000.0,0001.37,0002.43,0001.16
2023-10-12 12:17:00,SystemResetWarning,0813.6,4.99,000.00,028.1,026.6,000.0,036.5,029.8,21.3,0000.0,0001.43,0002.49,0001.20
2023-10-12 12:18:00,SystemResetWarning,0813.6,5.00,000.00,028.1,026.6,000.0,036.5,029.8,21.3,0000.0,0001.49,0002.63,0001.25
2023-10-12 12:19:00,SystemResetWarning,0813.7,5.01,000.00,028.1,026.6,000.0,036.5,029.8,21.3,0000.0,0001.57,0003.62,0001.30
2023-10-12 12:20:00,SystemResetWarning,0813.7,5.00,000.00,028.1,026.6,000.0,036.5,029.8,21.3,0000.0,0001.62,0004.08,0001.33
2023-10-12 12:21:00,SystemResetWarning,0813.6,5.00,000.00,028.1,026.6,000.0,036.5,029.8,21.3,0000.0,0001.68,0004.19,0001.35
2023-10-12 12:22:00,SystemResetWarning,0813.6,5.00,000.00,028.1,026.6,000.0,036.5,029.8,21.3,0000.0,0001.69,0004.05,0001.38
2023-10-12 12:23:00,SystemResetWarning,0813.6,5.00,000.00,028.1,026.6,000.0,036.5,029.7,21.3,0000.0,0001.73,0004.06,0001.41
2023-10-12 12:24:00,SystemResetWarning,0813.6,5.00,000.00,028.1,026.6,000.0,036.5,029.7,21.3,0000.0,0001.75,0004.07,0001.44
2023-10-12 12:25:00,SystemResetWarning,0813.7,5.00,000.00,028.1,026.6,000.0,036.5,029.7,21.3,0000.0,0001.79,0004.19,0001.45
2023-10-12 12:26:00,SystemResetWarning,0813.7,5.00,000.00,028.1,026.6,000.0,036.5,029.8,21.3,0000.0,0001.77,0004.14,0001.44
2023-10-12 12:27:00,SystemResetWarning,0813.7,5.00,000.00,028.1,026.6,000.0,036.5,029.8,21.3,0000.0,0001.78,0004.16,0001.43
2023-10-12 12:28:00,SystemResetWarning,0813.7,5.00,000.00,028.1,026.5,000.0,036.5,029.8,21.3,0000.0,0001.78,0004.17,0001.43
2023-10-12 12:29:00,SystemResetWarning,0813.8,5.01,000.00,028.1,026.5,000.0,036.5,029.8,21.3,0000.0,0001.78,0004.21,0001.43
2023-10-12 12:30:00,SystemResetWarning,0813.9,5.00,000.00,028.1,026.5,000.0,036.5,029.8,21.3,0000.0,0001.75,0003.21,0001.41
2023-10-12 12:31:00,SystemResetWarning,0813.9,5.01,000.00,028.1,026.5,000.0,036.5,029.8,21.2,0000.0,0001.75,0002.61,0001.39
2023-10-12 12:32:00,SystemResetWarning,0813.9,5.00,000.00,028.1,026.5,000.0,036.5,029.8,21.2,0000.0,0001.72,0002.61,0001.38
2023-10-12 12:33:00,SystemResetWarning,0813.9,5.00,000.00,028.1,026.5,000.0,036.5,029.8,21.2,0000.0,0001.72,0002.58,0001.39
2023-10-12 12:34:00,SystemResetWarning,0813.9,4.99,000.00,028.1,026.5,000.0,036.5,029.7,21.3,0000.0,0001.74,0002.62,0001.40
2023-10-12 12:35:00,SystemResetWarning,0813.9,4.99,000.00,028.1,026.5,000.0,036.5,029.7,21.3,0000.0,0001.76,0002.68,0001.40
2023-10-12 12:36:00,SystemResetWarning,0813.9,4.99,000.00,028.1,026.5,000.0,036.5,029.7,21.3,0000.0,0001.75,0002.67,0001.40
2023-10-12 12:37:00,SystemResetWarning,0813.9,5.00,000.00,028.1,026.5,000.0,036.5,029.7,21.4,0000.0,0001.77,0002.72,0001.42
2023-10-12 12:38:00,SystemResetWarning,0813.8,5.00,000.00,028.1,026.5,000.0,036.5,029.7,21.3,0000.0,0001.77,0002.74,0001.43
2023-10-12 12:39:00,SystemResetWarning,0813.7,5.00,000.00,028.1,026.5,000.0,036.5,029.7,21.3,0000.0,0001.78,0002.78,0001.44
2023-10-12 12:40:00,SystemResetWarning,0813.7,5.00,000.00,028.0,026.5,000.0,036.5,029.7,21.4,0000.0,0001.77,0002.75,0001.45
2023-10-12 12:41:00,SystemResetWarning,0813.7,5.00,000.00,028.0,026.5,000.0,036.5,029.7,21.5,0000.0,0001.79,0002.74,0001.48
2023-10-12 12:42:00,SystemResetWarning,0813.7,5.00,000.00,028.0,026.4,000.0,036.5,029.7,21.5,0000.0,0001.82,0002.81,0001.51
2023-10-12 12:43:00,SystemResetWarning,0813.7,5.01,000.00,028.0,026.4,000.0,036.5,029.6,21.5,0000.0,0001.85,0002.82,0001.53
2023-10-12 12:44:00,SystemResetWarning,0813.7,5.00,000.00,028.0,026.4,000.0,036.5,029.7,21.5,0000.0,0001.85,0002.77,0001.56
2023-10-12 12:45:00,SystemResetWarning,0813.7,5.00,000.00,028.0,026.4,000.0,036.5,029.6,21.5,0000.0,0001.85,0002.73,0001.59
2023-10-12 12:46:00,SystemResetWarning,0813.7,5.00,000.00,028.0,026.4,000.0,036.5,029.6,21.6,0000.0,0001.95,0003.52,0001.66
2023-10-12 12:47:00,SystemResetWarning,0813.7,4.99,000.00,028.0,026.3,000.0,036.5,029.6,21.6,0000.0,0002.03,0004.81,0001.72
2023-10-12 12:48:00,SystemResetWarning,0813.7,4.99,000.00,028.0,026.3,000.0,036.5,029.6,21.6,0000.0,0002.14,0005.42,0001.77
2023-10-12 12:49:00,SystemResetWarning,0813.8,4.99,000.00,028.0,026.3,000.0,036.5,029.6,21.7,0000.0,0002.35,0006.17,0001.85
2023-10-12 12:50:00,SystemResetWarning,0813.8,5.01,000.00,028.0,026.3,000.0,036.5,029.6,21.7,0000.0,0002.51,0007.25,0001.95
2023-10-12 12:51:00,SystemResetWarning,0813.8,5.01,000.00,027.9,026.3,000.0,036.5,029.6,21.6,0000.0,0002.66,0007.43,0002.03
2023-10-12 12:52:00,SystemResetWarning,0813.8,5.00,000.00,027.9,026.3,000.0,036.5,029.5,21.6,0000.0,0002.78,0007.57,0002.10
2023-10-12 12:53:00,SystemResetWarning,0813.8,5.00,000.00,027.9,026.3,000.0,036.5,029.5,21.6,0000.0,0002.85,0007.59,0002.17
2023-10-12 12:54:00,SystemResetWarning,0813.8,4.99,000.00,027.9,026.2,000.0,036.5,029.5,21.6,0000.0,0002.97,0007.68,0002.26
2023-10-12 12:55:00,SystemResetWarning,0813.7,4.99,000.00,027.9,026.2,000.0,036.5,029.5,21.9,0000.0,0003.10,0007.82,0002.33
2023-10-12 12:56:00,SystemResetWarning,0813.7,5.00,000.00,027.9,026.2,000.0,036.5,029.5,21.9,0000.0,0003.19,0008.01,0002.41
2023-10-12 12:57:00,SystemResetWarning,0813.6,5.00,000.00,027.9,026.2,000.0,036.5,029.5,21.7,0000.0,0003.24,0008.58,0002.46
2023-10-12 12:58:00,SystemResetWarning,0813.6,5.01,000.00,027.9,026.2,000.0,036.4,029.5,21.7,0000.0,0003.30,0007.91,0002.49
2023-10-12 12:59:00,SystemResetWarning,0813.6,5.00,000.00,027.9,026.2,000.0,036.4,029.5,21.7,0000.0,0003.35,0008.32,0002.53
